Previsão horária em Alkatovo

Hoje, 16 Junho, Quarta-feira

Tempo Temperatura Precipitação Vento Pressão Humidade
00:00 +14°C° 0 mm 1 m/s 739 mmHg 96%
01:00 +14°C° 0 mm 2 m/s 740 mmHg 96%
02:00 +13°C° 0 mm 2 m/s 740 mmHg 97%
03:00 +13°C° 0 mm 2 m/s 740 mmHg 93%
04:00 +13°C° 0 mm 2 m/s 740 mmHg 89%
05:00 +13°C° 0 mm 2 m/s 740 mmHg 86%
06:00 +15°C° 0 mm 2 m/s 741 mmHg 75%
07:00 +17°C° 0 mm 2 m/s 741 mmHg 65%
08:00 +18°C° 0 mm 2 m/s 742 mmHg 54%
09:00 +19°C° 0 mm 3 m/s 742 mmHg 49%
10:00 +20°C° 0 mm 3 m/s 742 mmHg 43%
11:00 +21°C° 0 mm 3 m/s 742 mmHg 37%
12:00 +22°C° 0 mm 3 m/s 742 mmHg 36%
13:00 +22°C° 0 mm 3 m/s 743 mmHg 34%
14:00 +23°C° 0 mm 4 m/s 743 mmHg 33%
15:00 +22°C° 0 mm 3 m/s 743 mmHg 34%
16:00 +22°C° 0 mm 3 m/s 743 mmHg 36%
17:00 +21°C° 0 mm 3 m/s 743 mmHg 37%
18:00 +19°C° 0 mm 2 m/s 743 mmHg 47%
19:00 +17°C° 0 mm 2 m/s 744 mmHg 56%
20:00 +15°C° 0 mm 2 m/s 744 mmHg 65%
21:00 +14°C° 0 mm 1 m/s 744 mmHg 67%
22:00 +13°C° 0 mm 1 m/s 745 mmHg 68%
23:00 +12°C° 0 mm 1 m/s 745 mmHg 69%

Amanhã, 17 Junho, Quinta-feira

Tempo Temperatura Precipitação Vento Pressão Humidade
00:00 +12°C° 0 mm 1 m/s 746 mmHg 71%
01:00 +11°C° 0 mm 1 m/s 746 mmHg 73%
02:00 +10°C° 0 mm 0 m/s 746 mmHg 75%
03:00 +11°C° 0 mm 0 m/s 747 mmHg 73%
04:00 +12°C° 0 mm 0 m/s 747 mmHg 71%
05:00 +13°C° 0 mm 0 m/s 747 mmHg 68%
06:00 +16°C° 0 mm 1 m/s 747 mmHg 61%
07:00 +19°C° 0 mm 1 m/s 748 mmHg 53%
08:00 +21°C° 0 mm 1 m/s 748 mmHg 45%
09:00 +22°C° 0 mm 1 m/s 748 mmHg 42%
10:00 +24°C° 0 mm 1 m/s 748 mmHg 38%
11:00 +25°C° 0 mm 2 m/s 748 mmHg 35%
12:00 +25°C° 0 mm 2 m/s 748 mmHg 34%
13:00 +26°C° 0 mm 2 m/s 748 mmHg 33%
14:00 +26°C° 0 mm 2 m/s 748 mmHg 32%
15:00 +26°C° 0 mm 2 m/s 748 mmHg 35%
16:00 +25°C° 0 mm 2 m/s 748 mmHg 39%
17:00 +25°C° 0 mm 2 m/s 748 mmHg 43%
18:00 +23°C° 0 mm 2 m/s 748 mmHg 52%
19:00 +21°C° 0 mm 1 m/s 749 mmHg 60%
20:00 +19°C° 0 mm 1 m/s 749 mmHg 69%
21:00 +18°C° 0 mm 1 m/s 749 mmHg 71%
22:00 +15°C° 0 mm 0 m/s 749 mmHg 73%
23:00 +14°C° 0 mm 0 m/s 749 mmHg 75%

Depois de amanhã, 18 Junho, Sexta-feira

Tempo Temperatura Precipitação Vento Pressão Humidade
00:00 +14°C° 0 mm 0 m/s 749 mmHg 76%
01:00 +14°C° 0 mm 1 m/s 750 mmHg 77%
02:00 +14°C° 0 mm 1 m/s 750 mmHg 78%
03:00 +15°C° 0 mm 1 m/s 750 mmHg 77%
04:00 +15°C° 0 mm 1 m/s 750 mmHg 75%
05:00 +16°C° 0 mm 1 m/s 750 mmHg 74%
06:00 +19°C° 0 mm 1 m/s 750 mmHg 66%
07:00 +22°C° 0 mm 1 m/s 750 mmHg 57%
08:00 +24°C° 0 mm 1 m/s 750 mmHg 49%
09:00 +25°C° 0 mm 1 m/s 750 mmHg 45%
10:00 +26°C° 0 mm 2 m/s 750 mmHg 41%
11:00 +28°C° 0 mm 2 m/s 750 mmHg 37%
12:00 +28°C° 0 mm 2 m/s 750 mmHg 35%
13:00 +29°C° 0 mm 2 m/s 750 mmHg 34%
14:00 +29°C° 0 mm 2 m/s 749 mmHg 33%
15:00 +29°C° 0 mm 2 m/s 749 mmHg 36%
16:00 +29°C° 0 mm 2 m/s 749 mmHg 38%
17:00 +29°C° 0 mm 2 m/s 749 mmHg 41%
18:00 +26°C° 0 mm 2 m/s 749 mmHg 51%
19:00 +24°C° 0 mm 2 m/s 749 mmHg 60%
20:00 +22°C° 0 mm 1 m/s 749 mmHg 70%
21:00 +20°C° 0 mm 2 m/s 749 mmHg 74%
22:00 +19°C° 0 mm 2 m/s 749 mmHg 78%
23:00 +18°C° 0 mm 2 m/s 749 mmHg 81%

19 Junho, Sábado

Tempo Temperatura Precipitação Vento Pressão Humidade
00:00 +17°C° 0 mm 2 m/s 749 mmHg 85%
01:00 +17°C° 0 mm 2 m/s 750 mmHg 88%
02:00 +16°C° 0 mm 2 m/s 750 mmHg 92%
03:00 +17°C° 0 mm 2 m/s 750 mmHg 89%
04:00 +17°C° 0 mm 2 m/s 750 mmHg 87%
05:00 +18°C° 0 mm 2 m/s 750 mmHg 84%
06:00 +20°C° 0 mm 2 m/s 750 mmHg 75%
07:00 +22°C° 0 mm 3 m/s 750 mmHg 67%
08:00 +25°C° 0 mm 3 m/s 750 mmHg 58%
09:00 +26°C° 0 mm 3 m/s 750 mmHg 53%
10:00 +27°C° 0 mm 3 m/s 750 mmHg 47%
11:00 +28°C° 0 mm 3 m/s 750 mmHg 41%
12:00 +29°C° 0 mm 3 m/s 750 mmHg 40%
13:00 +30°C° 0 mm 3 m/s 749 mmHg 38%
14:00 +30°C° 0 mm 3 m/s 749 mmHg 36%
15:00 +30°C° 0 mm 3 m/s 749 mmHg 38%
16:00 +30°C° 0 mm 2 m/s 749 mmHg 40%
17:00 +30°C° 0 mm 2 m/s 749 mmHg 42%
18:00 +27°C° 0 mm 2 m/s 749 mmHg 51%
19:00 +25°C° 0 mm 2 m/s 749 mmHg 61%
20:00 +23°C° 0 mm 1 m/s 749 mmHg 71%
21:00 +21°C° 0 mm 2 m/s 749 mmHg 75%
22:00 +20°C° 0 mm 2 m/s 749 mmHg 79%
23:00 +18°C° 0 mm 2 m/s 749 mmHg 83%

20 Junho, Domingo

Tempo Temperatura Precipitação Vento Pressão Humidade
00:00 +18°C° 0 mm 2 m/s 749 mmHg 85%
01:00 +17°C° 0 mm 2 m/s 749 mmHg 87%
02:00 +17°C° 0 mm 2 m/s 750 mmHg 89%
03:00 +17°C° 0 mm 2 m/s 750 mmHg 87%
04:00 +19°C° 0 mm 1 m/s 750 mmHg 85%
05:00 +19°C° 0 mm 1 m/s 750 mmHg 83%
06:00 +20°C° 0 mm 2 m/s 750 mmHg 73%
07:00 +23°C° 0 mm 2 m/s 749 mmHg 64%
08:00 +25°C° 0 mm 2 m/s 749 mmHg 54%
09:00 +26°C° 0 mm 3 m/s 749 mmHg 50%
10:00 +27°C° 0 mm 3 m/s 749 mmHg 45%
11:00 +28°C° 0 mm 3 m/s 749 mmHg 41%
12:00 +29°C° 0 mm 3 m/s 749 mmHg 39%
13:00 +29°C° 0 mm 3 m/s 748 mmHg 37%
14:00 +30°C° 0 mm 3 m/s 748 mmHg 36%
15:00 +30°C° 0 mm 3 m/s 748 mmHg 37%
16:00 +30°C° 0 mm 3 m/s 747 mmHg 39%
17:00 +30°C° 0 mm 2 m/s 747 mmHg 40%
18:00 +27°C° 0 mm 2 m/s 747 mmHg 50%
19:00 +25°C° 0 mm 2 m/s 747 mmHg 60%
20:00 +23°C° 0 mm 1 m/s 747 mmHg 70%
21:00 +21°C° 0 mm 2 m/s 747 mmHg 73%
22:00 +20°C° 0 mm 2 m/s 747 mmHg 77%
23:00 +18°C° 0 mm 2 m/s 747 mmHg 81%

21 Junho, Segunda-feira

Tempo Temperatura Precipitação Vento Pressão Humidade
00:00 +18°C° 0 mm 2 m/s 747 mmHg 84%
01:00 +17°C° 0 mm 2 m/s 747 mmHg 87%
02:00 +17°C° 0 mm 2 m/s 747 mmHg 91%
03:00 +17°C° 0 mm 2 m/s 747 mmHg 89%
04:00 +18°C° 0 mm 2 m/s 747 mmHg 86%
05:00 +19°C° 0 mm 2 m/s 747 mmHg 84%
06:00 +21°C° 0 mm 2 m/s 747 mmHg 75%
07:00 +24°C° 0 mm 2 m/s 747 mmHg 67%
08:00 +26°C° 0 mm 2 m/s 747 mmHg 58%
09:00 +27°C° 0 mm 2 m/s 747 mmHg 53%
10:00 +28°C° 0 mm 2 m/s 746 mmHg 47%
11:00 +30°C° 0 mm 2 m/s 746 mmHg 41%
12:00 +30°C° 0 mm 2 m/s 746 mmHg 39%
13:00 +31°C° 0 mm 2 m/s 746 mmHg 37%
14:00 +31°C° 0 mm 2 m/s 745 mmHg 34%
15:00 +31°C° 0 mm 2 m/s 745 mmHg 36%
16:00 +31°C° 0 mm 2 m/s 745 mmHg 38%
17:00 +31°C° 0 mm 2 m/s 745 mmHg 39%
18:00 +29°C° 0 mm 2 m/s 745 mmHg 49%
19:00 +27°C° 0 mm 1 m/s 745 mmHg 58%
20:00 +24°C° 0 mm 1 m/s 745 mmHg 67%
21:00 +24°C° 0 mm 1 m/s 745 mmHg 69%
22:00 +23°C° 0 mm 1 m/s 745 mmHg 71%
23:00 +22°C° 0 mm 1 m/s 745 mmHg 73%
Mostrar mais